Flag for Azerbaijan Weather past 2 weeks in Ganja, Azerbaijan

Now
81 °F

Passing clouds.


Feels Like: 81 °F
Forecast: 75 / 93 °F
Wind: 14 mph from West

Location: Gyanca Airport

Current Time: Aug 21, 2014 at 2:30:22 AM

Latest Report: Aug 21, 2014 at 2:00 AM


Visibility: N/A

Pressure: 29.95 "Hg

Humidity: 51%

Dew point: 61 °F

Location of GanjaLocation

Historic Weather in Ganja — Graph

°F

Ganja temperature yesterday

Maximum temperature yesterday: 97 °F (at 3:00 PM)
Minimum temperature yesterday: 77 °F (at 5:00 AM)
Average temperature yesterday: 88 °F

Past Weeks' High & Low Weather Summary

 TemperatureHumidityPressure
High106 °F (Aug 19, 5:00 PM)65% (Aug 20, 4:00 AM)30.07 "Hg (Aug 20, 4:00 AM)
Low70 °F (Aug 15, 6:30 AM)12% (Aug 19, 5:00 PM)29.56 "Hg (Aug 6, 3:30 PM)
Average85 °F35%29.80 "Hg
* Reported Aug 6 1:00 AM — Aug 21 1:30 AM, Ganja, Weather by CustomWeather, © 2014

Note: Actual official high and low records may vary slightly from our data, if they occured in-between our weather recording intervals... More about our weather records

Advertising

Ganja weather history for previous 24 hours

 ConditionsComfort  
Time TempWeatherWind HumidityBarometerVisibility
1:30 AM
Aug 21
84 °FPassing clouds.17 mph43%29.98 "HgN/A
1:00 AM86 °FPassing clouds.7 mph40%29.98 "HgN/A
11:00 PM
Aug 20
90 °FPassing clouds.10 mph31%29.89 "HgN/A
10:00 PM91 °FPartly sunny.7 mph30%29.89 "HgN/A
9:00 PM91 °FPartly sunny.3 mph28%29.89 "HgN/A
8:00 PM95 °FPartly sunny.7 mph25%29.86 "HgN/A
7:30 PM97 °FPartly sunny.5 mph22%29.86 "HgN/A
7:00 PM95 °FPartly sunny.10 mph25%29.86 "HgN/A
6:30 PM93 °FPartly sunny.15 mph28%29.86 "HgN/A
6:00 PM95 °FPartly sunny.9 mph18%29.86 "HgN/A
5:30 PM91 °FThundershowers. Broken clouds.12 mph36%29.92 "HgN/A
4:00 PM97 °FScattered clouds.9 mph28%29.92 "HgN/A
3:00 PM97 °FScattered clouds.3 mph30%29.92 "HgN/A
2:30 PM93 °FScattered clouds.3 mph36%29.95 "HgN/A
1:30 PM93 °FPassing clouds.5 mph39%29.95 "HgN/A
1:00 PM90 °FPassing clouds.9 mph43%29.98 "HgN/A
12:30 PM88 °FPassing clouds.6 mph49%29.98 "HgN/A
12:00 PM88 °FPassing clouds.9 mph46%29.98 "HgN/A
11:30 AM86 °FPassing clouds.9 mph52%29.98 "HgN/A
11:00 AM86 °FPassing clouds.10 mph49%29.98 "HgN/A
10:30 AM84 °FPassing clouds.7 mph55%29.98 "HgN/A
10:00 AM84 °FPassing clouds.8 mph51%N/AN/A
9:30 AM82 °FPassing clouds.7 mph58%29.98 "HgN/A
9:00 AM81 °FPassing clouds.6 mph62%29.95 "HgN/A
8:00 AM79 °FPassing clouds.No wind61%29.95 "HgN/A
7:00 AM79 °FPassing clouds.10 mph65%29.92 "HgN/A
6:00 AM77 °FPassing clouds.5 mph57%29.89 "HgN/A
5:00 AM77 °FPassing clouds.5 mph57%29.86 "HgN/A
4:00 AM79 °FPassing clouds.5 mph65%29.86 "HgN/A
3:00 AM81 °FPassing clouds.5 mph54%29.89 "HgN/A
2:00 AM84 °FPassing clouds.6 mph43%29.89 "HgN/A
Weather by CustomWeather, © 2014

See weather overviewHow to use our weather pages